DW4407 Weather Reports


time (UTC)temp
C
wind
direction
speed
KPH
gust
KPH
rain 1hr
cm
rain 24hr
cm
rain mn
cm
humidity
%
barometer
mb
20260505101534 6 310 0.0 0.0 0.00 0.05 0.05 90 1022.1
20260505100028 6 310 0.0 0.0 0.00 0.08 0.05 90 1021.8
20260505094527 6 310 0.0 0.0 0.00 0.08 0.05 90 1021.7
20260505093026 6 310 0.0 0.0 0.00 0.08 0.05 90 1021.7
20260505091527 7 310 0.0 0.0 0.00 0.08 0.05 89 1021.5
20260505090037 7 310 0.0 0.0 0.00 0.08 0.05 89 1021.2
20260505084521 7 310 0.0 0.0 0.03 0.08 0.05 88 1021.0
20260505083019 8 310 0.0 0.0 0.03 0.08 0.05 88 1020.7
20260505081517 8 310 0.0 0.0 0.03 0.08 0.05 86 1020.4
20260505080035 8 310 0.0 0.0 0.03 0.08 0.05 85 1020.2
20260505074513 10 310 0.0 0.0 0.00 0.05 0.03 83 1019.8
20260505073025 10 310 0.0 0.0 0.00 0.05 0.03 81 1019.6
20260505071509 11 310 0.0 0.0 0.00 0.05 0.03 78 1019.2
20260505070008 12 310 0.0 0.0 0.00 0.05 0.03 75 1019.0
20260505064508 13 310 0.0 0.0 0.00 0.05 0.03 71 1018.8
20260505063007 13 310 0.0 0.0 0.00 0.05 0.03 69 1018.5
20260505061506 15 78 0.0 3.2 0.00 0.05 0.03 64 1018.4
20260505060005 16 290 0.0 4.8 0.00 0.08 0.03 60 1018.3
20260505054505 17 266 0.0 4.8 0.00 0.08 0.03 57 1018.2
20260505053006 17 276 0.0 4.8 0.00 0.08 0.03 55 1018.1
20260505051506 17 279 0.0 4.8 0.00 0.08 0.03 53 1017.9
20260505041502 17 340 0.0 4.8 0.00 0.08 0.03 52 1017.4
20260505040106 17 275 0.0 9.7 0.00 0.08 0.03 54 1017.4
20260505034559 17 146 0.0 9.7 0.00 0.08 0.03 56 1017.3
20260505033059 17 262 0.0 6.4 0.00 0.08 0.03 54 1017.4
20260505031601 17 240 0.0 9.7 0.00 0.08 0.03 57 1017.4
20260505024556 17 272 3.2 9.7 0.00 0.10 0.03 53 1017.7
20260505023056 16 294 1.6 11.3 0.00 0.10 0.03 57 1017.9
20260505021555 16 325 0.0 9.7 0.00 0.10 0.03 56 1018.2
20260505020051 16 273 0.0 3.2 0.00 0.10 0.03 57 1018.3
20260505014602 16 150 1.6 6.4 0.00 0.10 0.03 58 1018.3
20260505013046 16 289 0.0 11.3 0.00 0.10 0.03 58 1018.5
20260505011549 16 293 1.6 4.8 0.00 0.10 0.03 59 1018.6
20260505010038 15 321 0.0 3.2 0.00 0.13 0.03 66 1018.9
20260505004535 14 238 0.0 6.4 0.00 0.13 0.03 69 1018.8
20260505003030 13 250 0.0 4.8 0.00 0.13 0.03 74 1018.9
20260505001526 12 254 0.0 4.8 0.00 0.13 0.03 77 1018.8
20260505000024 11 252 0.0 3.2 0.00 0.13 0.03 81 1018.9
20260504234518 11 252 0.0 1.6 0.00 0.13 0.03 85 1018.9
20260504233013 9 252 0.0 1.6 0.00 0.13 0.03 90 1019.1
20260504231510 8 248 0.0 6.4 0.00 0.13 0.03 91 1018.8
20260504230009 7 252 0.0 4.8 0.00 0.13 0.03 90 1018.7
20260504224507 7 251 0.0 1.6 0.00 0.13 0.03 91 1018.8
20260504223005 6 295 0.0 1.6 0.00 0.13 0.03 91 1018.5
20260504221504 4 303 0.0 0.0 0.00 0.13 0.03 91 1018.5
20260504220107 3 303 0.0 0.0 0.00 0.15 0.03 91 1018.2
20260504214605 3 303 0.0 0.0 0.00 0.15 0.03 91 1017.7
20260504213056 2 303 0.0 0.0 0.00 0.15 0.03 91 1017.4
20260504211552 2 303 0.0 0.0 0.00 0.15 0.03 91 1017.3
20260504210059 2 303 0.0 0.0 0.00 0.15 0.03 91 1016.8
20260504204603 3 303 0.0 0.0 0.00 0.15 0.03 92 1016.8
20260504203052 3 303 0.0 0.0 0.00 0.15 0.03 92 1016.4
20260504201540 3 303 0.0 0.0 0.00 0.15 0.03 91 1016.3
20260504200037 3 303 0.0 0.0 0.00 0.18 0.03 91 1016.0
20260504194533 4 303 0.0 0.0 0.00 0.18 0.03 91 1015.7
20260504193031 5 303 0.0 0.0 0.00 0.18 0.03 91 1015.5
20260504191528 5 303 0.0 0.0 0.00 0.18 0.03 91 1015.1
20260504190025 6 303 0.0 0.0 0.00 0.18 0.03 91 1015.0
20260504184524 6 303 0.0 0.0 0.00 0.18 0.03 91 1014.9
20260504183022 6 306 0.0 0.0 0.00 0.18 0.03 91 1014.9
20260504181520 5 333 1.6 11.3 0.00 0.18 0.03 91 1014.7
20260504180019 5 194 0.0 0.0 0.00 0.20 0.03 91 1014.4
20260504174516 5 194 0.0 0.0 0.00 0.20 0.03 91 1014.2
20260504173014 6 194 0.0 0.0 0.00 0.20 0.03 91 1014.1
20260504171513 6 194 0.0 0.0 0.00 0.20 0.03 91 1014.0